sat.trackr.live / text

‹ back to catalog

CENTAURI-1

NORAD 43809 · 2018-099BD

PAYLOAD ACTIVE UNKNOWN

§ Identity

Operator
Country
AUS
Launch date
2018-12-03
Launch site
AFWTR
Launch vehicle
Mass (kg)
RCS (m²)

External: N2YO · Heavens-Above · Gunter

§ Orbital elements

Epoch: 2026-09-09T15:37:41.784384Z

Period
94.92 min
Inclination
97.4146°
Eccentricity
0.0014829
Mean motion
15.17097347 rev/d
Perigee alt
504.4 km
Apogee alt
524.8 km
Semi-major
6,892.8 km
B*
1.9612e-4
RAAN
302.5621°
Arg perigee
40.3504°
Mean anomaly
319.8827°
Rev number
42,530

§ Raw data

CENTAURI-11 43809U 18099BD  26252.65117806  .00003829  00000+0  19612-3 0  99952 43809  97.4146 302.5621 0014829  40.3504 319.8827 15.17097347425302

JSON: /api/v1/satellites/43809 · /tle

For live sub-satellite position, see the globe view (requires WebGL).

§ Visibility from observer

Set your observer location to see the next 7 days of passes ≥ 10°. The values pass through the URL so the page stays shareable.

No JS? Fill the form by hand. The geolocation button needs JavaScript.

§ Radio — SatNOGS DB

ModeDescriptionDownlinkUplink
FSK FSK9k6 TLM 400.625 MHz

1 transmitter · refreshed weekly from db.satnogs.org